This is the latest recevied weather packets stored in our database for station/object KF7SOJ. If no packets are shown the sender has not sent any weather packets the latest 10 day(s).
| Time | Temp. | Humidity | Pressure | Rain* | Wind** | Luminosity | Snow |
|---|---|---|---|---|---|---|---|
| 1787856539 | 32.78° C | 21% | 933 hPa | 0 mm | - | 619 W/m² | - |
| 1787856234 | 32.78° C | 22% | 933.1 hPa | 0 mm | - | 728 W/m² | - |
| 1787855930 | 32.78° C | 22% | 933.2 hPa | 0 mm | - | 790 W/m² | - |
| 1787855629 | 32.22° C | 25% | 933.1 hPa | 0 mm | - | 740 W/m² | - |
| 1787855324 | 32.78° C | 24% | 933.2 hPa | 0 mm | - | 644 W/m² | - |
| 1787855020 | 32.78° C | 23% | 933.3 hPa | 0 mm | - | 717 W/m² | - |
| 1787854715 | 32.78° C | 21% | 933.4 hPa | 0 mm | - | 715 W/m² | - |
| 1787854415 | 32.78° C | 21% | 933.3 hPa | 0 mm | - | 707 W/m² | - |
| 1787854114 | 32.78° C | 21% | 933.5 hPa | 0 mm | - | 771 W/m² | - |
| 1787853810 | 32.22° C | 23% | 933.6 hPa | 0 mm | - | 840 W/m² | - |
| 1787853508 | 32.78° C | 22% | 933.7 hPa | 0 mm | - | 826 W/m² | - |
| 1787853203 | 32.22° C | 24% | 933.7 hPa | 0 mm | - | 802 W/m² | - |
| 1787852902 | 31.67° C | 26% | 933.8 hPa | 0 mm | - | 702 W/m² | - |
| 1787852597 | 31.67° C | 25% | 933.9 hPa | 0 mm | - | 828 W/m² | - |
| 1787852296 | 31.11° C | 26% | 934 hPa | 0 mm | - | 824 W/m² | - |
| 1787851991 | 30.56° C | 26% | 934.1 hPa | 0 mm | - | 815 W/m² | - |
| 1787851690 | 30.56° C | 26% | 934.1 hPa | 0 mm | - | 799 W/m² | - |
| 1787851390 | 30.56° C | 26% | 934.2 hPa | 0 mm | - | 779 W/m² | - |
| 1787851085 | 30.56° C | 26% | 934.3 hPa | 0 mm | - | 755 W/m² | - |
| 1787850781 | 30° C | 27% | 934.4 hPa | 0 mm | - | 686 W/m² | - |
| 1787850476 | 30° C | 27% | 934.4 hPa | 0 mm | - | 728 W/m² | - |
| 1787850171 | 29.44° C | 27% | 934.3 hPa | 0 mm | - | 690 W/m² | - |
| 1787849866 | 29.44° C | 28% | 934.3 hPa | 0 mm | - | 705 W/m² | - |
| 1787849567 | 28.89° C | 28% | 934.4 hPa | 0 mm | - | 641 W/m² | - |
| 1787849260 | 28.89° C | 29% | 934.3 hPa | 0 mm | - | 622 W/m² | - |
* Rain latest hour (hover to see other rain measurements)
** Current wind speed in m/s (hover to see current wind gust speed)